Regional Weather Roundup
Issued by NWS

Home | Current Version | Previous Version | Graphics & Text | Print | Product List | Glossary On
Versions: 1 2 3 4 5 6 7 8 9 10 11 12 13 14 15 16 17 18 19 20 21 22 23 24 25 26 27 28 29 30 31 32 33 34 35 36 37 38 39 40 41 42 43 44 45 46 47 48 49 50
000
ASUS43 KIND 021559
RWRIN

WEATHER ROUNDUP FOR INDIANA
NATIONAL WEATHER SERVICE INDIANAPOLIS IN
1200 PM EDT TUE JUN 02 2015

NOTE: "FAIR" INDICATES FEW OR NO CLOUDS BELOW 12,000 FEET WITH NO
SIGNIFICANT WEATHER AND/OR OBSTRUCTIONS TO VISIBILITY.

* - STATION DOES NOT REPORT WEATHER SUCH AS PRECIPITATION OR FOG.

+ - STATION NOT QUALITY CONTROLLED BY THE NATIONAL WEATHER SERVICE.
    USE DATA WITH CAUTION...ESPECIALLY DEWPOINT AND RELATIVE
    HUMIDITY OBSERVATIONS.

INZ001>003-010>013-019-020-021700-
NORTHWEST INDIANA

CITY           SKY/WX    TMP DP  RH WIND       PRES   REMARKS
GARY /AIRPORT/ MOSUNNY   64  52  63 E5        30.19F
RENSSELAER +   SUNNY     63  52  67 E12       30.18F

$$

LMZ046-743>745-021700-
SOUTHERN LAKE MICHIGAN

STATION/POSITION TIME  TEMP    WIND        PRES    WAVE
                       AIR SEA DIR/SP/G            HT
                 (UTC) (F)     (DEG/KT/KT) (MB)    (FT)
BURNS HARBOR     1500          360/  6/  8 1023.0F
MICHIGAN CITY    1500   58     320/  8/  8   N/A
5NW MICH CITY    1500   53 56  350/  6/  6   N/A     1

$$

INZ004-005-014>016-021>024-021700-
NORTH CENTRAL INDIANA

CITY           SKY/WX    TMP DP  RH WIND       PRES   REMARKS
ELKHART        SUNNY     63  46  55 CALM      30.20F
GOSHEN         SUNNY     65  50  58 E5        30.19F
PERU/GRISSOM   SUNNY     63  51  65 NE7       30.16F
SOUTH BEND     MOSUNNY   65  47  52 SE10      30.20F

$$

INZ006>009-017-018-025>027-021700-
NORTHEAST INDIANA

CITY           SKY/WX    TMP DP  RH WIND       PRES   REMARKS
ANGOLA *+      SUNNY     64  55  72 SE10      30.19F
FORT WAYNE     MOSUNNY   63  51  65 E14       30.19F

$$

INZ028-029-035-036-043>045-051>053-021700-
WEST CENTRAL INDIANA

CITY           SKY/WX    TMP DP  RH WIND       PRES   REMARKS
CRAWFORDSVL +  MOSUNNY   61  48  62 E10       30.16F
GREENCASTLE +  SUNNY     63  50  63 NE6       30.15F
LAFAYETTE      MOSUNNY   63  52  67 E8        30.16F
TERRE HAUTE    SUNNY     64  53  67 E8        30.14F

$$

INZ030>032-037>040-046>048-054>057-064-065-021700-
CENTRAL INDIANA

CITY           SKY/WX    TMP DP  RH WIND       PRES   REMARKS
ANDERSON       CLOUDY    59  46  63 N6        30.19S
GREENWOOD *+   MOSUNNY   61  48  63 NE9       30.17S
INDIANAPOLIS   MOSUNNY   63  50  62 VRB6      30.15F
-EAGLE CREEK   MOSUNNY   63  51  65 NE7       30.15F
KOKOMO *+      PTSUNNY   61  52  72 NE10      30.17F
MT COMFORT *+  CLOUDY    61  45  55 E9        30.17F
SHELBYVILLE    CLOUDY    61  52  72 NE8       30.16F

$$

INZ033-034-041-042-049-050-058-059-021700-
EAST CENTRAL INDIANA

CITY           SKY/WX    TMP DP  RH WIND       PRES   REMARKS
MUNCIE         CLOUDY    57  50  77 E10       30.18S

$$

INZ060-061-067>069-081>083-085>088-021700-
SOUTHWEST INDIANA

CITY           SKY/WX    TMP DP  RH WIND       PRES   REMARKS
EVANSVILLE     CLOUDY    61  54  77 NE7       30.14S
HUNTINGBURG *+ CLOUDY    61  54  77 N7        30.14F

$$

INZ062-063-066-070>080-084-089>092-021700-
SOUTH CENTRAL AND SOUTHEAST INDIANA

CITY           SKY/WX    TMP DP  RH WIND       PRES   REMARKS
BLOOMINGTON    MOSUNNY   61  52  72 E7        30.15F
MADISON *+     CLOUDY    57  50  77 NE6       30.17F
SEYMOUR +      CLOUDY    59  52  77 NE6       30.16S

$$



USA.gov is the U.S. government's official web portal to all federal, state and local government web resources and services.